Tracking 28790 objects as of 19-Apr-2024
HD Live streaming from Space Station
objects crossing your sky now

COSMOS 1375 DEB

Track COSMOS 1375 DEB now!
10-day predictions


NORAD ID: 17800
Int'l Code: 1982-055AS
Perigee: 987.8 km
Apogee: 1,021.6 km
Inclination: 65.8 °
Period: 105.1 minutes
Semi major axis: 7375 km
RCS: 0.0622 m2 (small)
Launch date: June 6, 1982
Source: Commonwealth of Independent States (former USSR) (CIS)
Launch site: PLESETSK MISSILE AND SPACE COMPLEX (PKMTR)

Note: This is SATELLITE DEBRIS
Your satellite tracking list
Your tracking list is empty




NASA's NSSDC Master Catalog

Two Line Element Set (TLE):
1 17800U 82055AS  24109.40656583  .00000161  00000-0  27065-3 0  9990
2 17800  65.8333 146.2549 0022880 110.8436 346.5086 13.70559318924447
Source of the keplerian elements: AFSPC